Location: Deurze
(52.9838°N, 6.6090°E)
Time: 19:11:22
(UTC+00:00)

NOSS 3-2 (C) - Pass Details

Date: 11 March 2026
Orbit: 672 x 1536 km, 63.4° (Epoch: 2 January)

Event Time Altitude Azimuth Distance (km) Brightness Sun altitude
Rises 19:02:27 0° 199° (SSW) 3,092 6.2 -14.6°
Reaches altitude 10° 19:04:43 10° 192° (SSW) 2,237 5.4 -14.9°
Maximum altitude 19:09:29 42° 122° (ESE) 1,154 3.5 -15.6°
Drops below altitude 10° 19:15:08 10° 53° (NE) 2,665 5.4 -16.4°
Sets 19:18:04 0° 48° (NE) 3,758 6.3 -16.8°
